Regional Weather Roundup
Issued by NWS

Home | Current Version | Previous Version | Text Only | Print | Product List | Glossary Off
Versions: 1 2 3 4 5 6 7 8 9 10 11 12 13 14 15 16 17 18 19 20 21 22 23 24 25 26 27 28 29 30 31 32 33 34 35 36

000
ASUS45 KBOU 220010
RWRCO

WEATHER ROUNDUP FOR COLORADO
NATIONAL WEATHER SERVICE DENVER/BOULDER CO
500 PM MST WED FEB 21 2018

NOTE: "FAIR" INDICATES FEW OR NO CLOUDS BELOW 12000 FEET WITH NO
SIGNIFICANT WEATHER AND/OR OBSTRUCTIONS TO VISIBILITY.

COZ001>005-013-030-031-220100-
...NORTHWEST COLORADO...

CITY           SKY/WX    TMP DP  RH WIND       PRES   REMARKS
CRAIG          CLOUDY    19   9  65 W5        30.05S WCI  12
HAYDEN         FAIR      18   6  59 SW3       30.05S
MEEKER         CLOUDY    26  15  63 S3        30.00S
RANGELY        CLOUDY    26  11  52 CALM      30.07S
RABBIT EARS PA FAIR      12   5  73 W3        29.91S
STEAMBOAT SPGS FAIR      22   3  43 CALM      30.02S
WALDEN         FAIR      21   0  39 NW7       29.98S WCI  13
$$

COZ006>008-011-220100-
...WEST CENTRAL VALLEYS...

CITY           SKY/WX    TMP DP  RH WIND       PRES   REMARKS
GRAND JUNCTION CLOUDY    35   8  32 CALM      30.03S
MONTROSE       CLOUDY    32  12  43 CALM      30.03S
EAGLE          FAIR      31   7  36 CALM      30.01S
RIFLE          CLOUDY    31  10  41 E3        30.03S
DELTA          FAIR      39   8  27 W7        30.02S
NUCLA          CLOUDY    36  14  41 N3        30.02F
$$

COZ017>023-064>068-220100-
...SOUTHWEST COLORADO...

CITY           SKY/WX    TMP DP  RH WIND       PRES   REMARKS
DURANGO        CLOUDY    34  21  59 NE7       29.99F WCI  28
CORTEZ         CLOUDY    38  17  42 S10G18    29.98F
PAGOSA SPRINGS CLOUDY    30  17  59 N3        30.01F
TELLURIDE      CLOUDY    25   8  48 CALM      29.97S
WOLF CREEK PAS CLOUDY    10  10 100 S14G23    29.99F WCI  -5
$$

COZ009-010-012-014-032>034-037-058>063-220100-
...CENTRAL COLORADO...

CITY           SKY/WX    TMP DP  RH WIND       PRES   REMARKS
ASPEN          CLOUDY    24   8  50 NE5       29.95R WCI  18
BUENA VISTA    FAIR      31   5  33 SE13      29.94R WCI  21
COPPER MTN     CLOUDY    18  -4  38 S7        29.89R WCI   8
BERTHOUD PASS  CLOUDY     1  -8  66 NW6       29.89R WCI -10
COTTONWOOD PAS FAIR      28   9  43 S7        29.93R WCI  21
GUNNISON       FAIR      27  10  49 SW9       29.96R WCI  18
GRANBY         CLOUDY    21   0  39 S7        29.98S WCI  13
KREMMLING      FAIR      27   5  39 CALM      30.00S
LEADVILLE      CLOUDY    19   2  47 S10       29.89S WCI   7
MONARCH PASS   FAIR      12   5  73 S23       30.01S WCI  -7
SALIDA         FAIR      35   6  30 S12G18    30.03S WCI  26
SUNLIGHT       CLOUDY    10   5  79 SW7       29.96R WCI   0
WILKERSON PASS FAIR      18   3  53 CALM      29.95R
$$

COZ069>075-220100-
...SAN LUIS VALLEY/SANGRE DE CRISTO MOUNTAINS...

CITY           SKY/WX    TMP DP  RH WIND       PRES   REMARKS
ALAMOSA        FAIR      36  12  37 SW16      29.97S
DEL NORTE      FAIR      29   9  42 CALM      29.98S
LA VETA PASS   CLOUDY    21  10  63 S9G22     30.09R WCI  11
SAGUACHE       NOT AVBL
$$

COZ035-036-038>040-220100-
...NORTHERN COLORADO FRONT RANGE...

CITY           SKY/WX    TMP DP  RH WIND       PRES   REMARKS
DENVER INTL AP FAIR      17  10  74 NW12      30.09R WCI   4
AURORA         PTCLDY    17  11  78 N8        30.09R WCI   6
FRONT RANGE AP PTCLDY    19  16  86 NW10      30.10R WCI   8
ERIE MUNI ARPT FAIR      19  10  69 N5        30.18S WCI  12
BOULDER MUN AP FAIR      19  10  68 CALM      30.11S
CENTENNIAL     FAIR      19  12  74 N10       30.07R WCI   7
BROOMFIELD     PTCLDY    18  12  79 N10       30.09R WCI   6
FORT COLLINS   FAIR      19  12  74 N8        30.14S WCI   9
LONGMONT       FAIR      22  11  63 N3        30.16R
$$

COZ041-046-047-076>085-087-088-220100-
...PIKES PEAK/PALMER DIVIDE AND SOUTHERN FOOTHILLS...

CITY           SKY/WX    TMP DP  RH WIND       PRES   REMARKS
COLO. SPRINGS  FAIR      24   9  52 SE14      30.09R WCI  12
A. F. ACADEMY  PTCLDY    23  11  60 S14       30.04S WCI  10
SCHRIEVER AFB  NOT AVBL
CHEYENNE MTN   FAIR      19  12  74 S12       29.99R WCI   6
ELLICOTT         N/A    N/A N/A N/A S10       30.08R
FALCON         FAIR      22   8  54 S10       30.06S WCI  11
FORT CARSON    FAIR      26  11  54 S10       30.08R WCI  16
LIMON          FAIR      24   8  50 SE18      30.12R WCI  10
MONUMENT HILL  FAIR      21  12  68 S14       30.03S WCI   8
CANON CITY     CLEAR     32  16  51 E7        30.09S WCI  26
WALSENBURG     NOT AVBL
TRINIDAD       FAIR      35  11  36 NE14      30.05R WCI  26
$$

COZ042>045-048>051-090-091-220100-
...NORTHEAST COLORADO...

CITY           SKY/WX    TMP DP  RH WIND       PRES   REMARKS
GREELEY ARPT   FAIR      17  10  74 N9        30.15S WCI   6
AKRON          FAIR      24  12  60 SE15G24   30.17R WCI  11
BURLINGTON     CLOUDY    25  10  53 SE16      30.22S WCI  12
WRAY           FAIR      28   9  43 SE10      30.26S WCI  19
YUMA           FAIR      27  10  50 SE14      30.21S WCI  15
STERLING       FAIR      30  12  47 S14       30.19R WCI  20
HOLYOKE        FAIR      28  12  50 SE14      30.26R WCI  17
FORT MORGAN    FAIR      31  11  43 SE12      30.15R WCI  22
$$

COZ086-089-092>099-220100-
...SOUTHEAST COLORADO...

CITY           SKY/WX    TMP DP  RH WIND       PRES   REMARKS
PUEBLO         FAIR      30  10  43 SE7       30.13S WCI  23
LA JUNTA       FAIR      28  15  58 E17       30.17S WCI  16
LAMAR          MIX PCPN  25  12  58 SE14      30.23S WCI  13
SPRINGFIELD      N/A     21  15  78 SE14      30.20F WCI   8
$$




USA.gov is the U.S. government's official web portal to all federal, state and local government web resources and services.